Regional Weather Roundup
Issued by NWS

Home | Current Version | Previous Version | Graphics & Text | Print | Product List | Glossary On
Versions: 1 2 3 4 5 6 7 8 9 10 11 12 13 14 15 16 17 18 19 20 21 22 23 24 25
000
ASUS45 KTFX 192010
RWRMT
MONTANA REGIONAL WEATHER ROUNDUP
NATIONAL WEATHER SERVICE GREAT FALLS MT
200 PM MDT TUE SEP 19 2017

NOTE: "FAIR" INDICATES FEW OR NO CLOUDS BELOW 12000 FEET WITH NO
SIGNIFICANT WEATHER AND/OR OBSTRUCTIONS TO VISIBILITY.

MTZ001>007-043-192100-
WEST OF THE DIVIDE

CITY           SKY/WX    TMP DP  RH WIND       PRES   REMARKS
KALISPELL      CLOUDY    49  42  77 SE5       29.68F
MISSOULA       PTSUNNY   50  38  63 CALM      29.74S
BUTTE          CLOUDY    43  29  57 W8G17     29.74R
MULLAN PASS    SNOW      32  30  92 VRB6      29.71R VSB 1/4 WCI  26
ANACONDA         N/A     45  30  57 SW17G23   29.72S
DEER LODGE       N/A     52  30  43 SE3       29.71F
HAMILTON         N/A     52  34  50 SE6       29.75F
LIBBY            N/A     45  43  93 S5        29.69S
$$

MTZ008-052>055-192100-
SOUTHWEST MONTANA

CITY           SKY/WX    TMP DP  RH WIND       PRES   REMARKS
BOZEMAN        CLOUDY    46  37  71 SW5       29.71F
DILLON         CLOUDY    49  31  49 S21G26    29.73F
W YELLOWSTONE  CLOUDY    36  34  93 SW5       29.80F
ENNIS          CLOUDY    48  28  46 S14G21    29.78F
$$

MTZ009-010-012-014-046-048-049-054-192100-
EAST SLOPES AND CENTRAL MONTANA

CITY           SKY/WX    TMP DP  RH WIND       PRES   REMARKS
CUT BANK       PTSUNNY   55  25  31 SW13G24   29.60S
GREAT FALLS    CLOUDY    55  28  35 W21G30    29.63S
MALMSTROM AFB  CLOUDY    54  28  36 W22       29.64R
HELENA         CLOUDY    54  30  40 W12       29.67F
BOWMANS CRNR     N/A     49  26  40 SW13      29.64S
CHOTEAU          N/A     52  25  35 W10       29.64S
FAIRFIELD        N/A     55  27  34 SW18      29.62S
POWER            N/A     55  25  31 SW16G25   29.61F
RAYNESFORD       N/A     53  24  33 W17G29    29.64S
$$

MTZ011-013-016-021-045-047-050-051-192100-
NORTH CENTRAL MONTANA

CITY           SKY/WX    TMP DP  RH WIND       PRES   REMARKS
HAVRE          MOSUNNY   57  33  40 W13       29.59S
LEWISTOWN      PTSUNNY   55  29  36 W15       29.63F
N BAR RANCH    PTSUNNY   52  27  37 W9        29.67S
CHINOOK          N/A     57  34  41 W13G18    29.57F
DENTON           N/A     53  29  38 W13       29.60R
GEYSER           N/A     54  27  36 W17G26    29.62F
GRASS RANGE    PTSUNNY   54  29  38 W13G20    29.59F
JUDITH GAP     PTSUNNY   50  24  36 NW6       29.65S
WINIFRED         N/A     53  30  41 NW15G23   29.62S
$$

MTZ017>020-022>027-061-062-192100-
NORTHEAST MONTANA

CITY           SKY/WX    TMP DP  RH WIND       PRES   REMARKS
GLASGOW          N/A     57  39  51 MISG      29.52
JORDAN           N/A     56  35  45 W10       29.59F
SIDNEY         CLOUDY    61  45  55 W21G26    29.50R
WOLF POINT     MOSUNNY   61  38  42 W20G25    29.52R
MALTA          SUNNY     57  37  47 W20G31    29.56S
PLENTYWOOD       N/A     61  45  55 W15G21    29.47R
POPLAR           N/A     61  39  44 W16G22    29.51R
$$

MTZ028>42-056>058-192100-
SOUTHCENTRAL AND SOUTHEAST MONTANA

CITY           SKY/WX    TMP DP  RH WIND       PRES   REMARKS
BAKER          LGT RAIN  54  46  74 W8        29.58R
BILLINGS       CLOUDY    51  41  68 S9        29.68S
LIVINGSTON     PTSUNNY   53  34  48 SW24G30   29.69S
MILES CITY     CLOUDY    56  36  47 NW17      29.61R
BIG TIMBER     MOSUNNY   52  30  43 W16       29.70F
HARLOWTON      PTSUNNY   53  30  40 MISG      29.66S
LAUREL           N/A     55  37  50 W13G20    29.68F
$$

REGIONAL REPORTS...DAKOTAS

CITY           SKY/WX    TMP DP  RH WIND       PRES   REMARKS
WILLISTON      CLOUDY    63  51  65 W16G23    29.48R
MINOT          CLOUDY    71  58  63 S14G21    29.43S
DICKINSON      CLOUDY    61  50  67 W12       29.50F
BEACH          PTSUNNY   59  43  55 NW16      29.57R
CROSBY         PTSUNNY   61  52  72 W20       29.45R
TIOGA          PTSUNNY   61  55  82 W16G24    29.48R
WATFORD CITY     N/A     61  50  67 W14       29.49R
BISMARCK       CLOUDY    75  50  41 W12       29.46F
GRAND FORKS    CLOUDY    76  65  68 SE16      29.55F
FARGO          CLOUDY    76  63  64 SE26G38   29.57F
BUFFALO SD       N/A     61  48  62 NW21      29.49S
RAPID CITY     SUNNY     70  45  40 N13       29.51F
$$

REGIONAL REPORTS...WYOMING/IDAHO/WASHINGTON

CITY           SKY/WX    TMP DP  RH WIND       PRES   REMARKS
GILLETTE       RAIN      47  45  93 NW5       29.66S FOG
SHERIDAN       LGT RAIN  47  40  76 NW14      29.71R
BUFFALO WY     LGT RAIN  43  38  82 N15G24    29.71R
CODY           MOSUNNY   50  39  66 N13G20    29.71S
YELLOWSTONE LA   N/A     34  29  82 VRB6      29.82S WCI  29
IDAHO FALLS    CLOUDY    52  33  48 SW26G35   29.83S
SALMON         PTSUNNY   52  36  54 S18G29    29.76F
BOISE          CLOUDY    52  42  69 MISG      29.91R
SPOKANE        LGT RAIN  47  44  90 SW13      29.72S FOG
$$

REGIONAL REPORTS...ALBERTA

CITY           SKY/WX    TMP DP  RH WIND       PRES   REMARKS
EDMONTON       CLOUDY    39  37  93 W15G22    29.41R WCI  31
CALGARY        MOSUNNY   54  19  26 NW9G20    29.49F
LETHBRIDGE     PTSUNNY   59  23  25 W17G32    29.53F
MEDICINE HAT   PTSUNNY   59  34  38 W12G18    29.53F
$$

REGIONAL REPORTS...SASKATCHEWAN

CITY           SKY/WX    TMP DP  RH WIND       PRES   REMARKS
SWIFT CURRENT  PTSUNNY   52  39  62 W18G26    29.48S
REGINA         CLOUDY    54  50  87 W21G28    29.39R
SASKATOON      LGT RAIN  50  50 100 W10G17    29.42F FOG
$$




USA.gov is the U.S. government's official web portal to all federal, state and local government web resources and services.